Weather History for Tekamah, NE

Change the Weather History Date:

Saturday, August 18, 2012

  Actual Average Record
Temperature  
Mean Temperature 57 °F -  
Max Temperature 66 °F 87 °F 103 °F (1988)
Min Temperature 48 °F 62 °F 46 °F (2002)
Degree Days  
Heating Degree Days 8    
Growing Degree Days 7 (Base 50)    
Moisture  
Dew Point 51 °F    
Average Humidity 83    
Maximum Humidity 94    
Minimum Humidity 61    
Precipitation  
Precipitation 0.14 in - - ()
Sea Level Pressure  
Sea Level Pressure 30.03 in    
Wind  
Wind Speed 4 mph (NE)    
Max Wind Speed 16 mph    
Max Gust Speed 28 mph    
Visibility 8 miles    
Events Rain    
Averages and records for this station are not official NWS values.
T = Trace of Precipitation, MM = Missing Value Source: NWS Daily Summary

Daily Weather History Graph

Daily Weather History Graph

Search for Another Location

Airport:

Trip Planner

Search our weather history database for the weather conditions in past years. The results will help you decide how hot, cold, wet, or windy it might be!

Date:

Astronomy

Aug. 18, 2012 Rise Set
Actual Time 6:36 AM CDT 8:19 PM CDT
Civil Twilight 6:07 AM CDT 8:48 PM CDT
Nautical Twilight 5:31 AM CDT 9:24 PM CDT
Astronomical Twilight 4:52 AM CDT 10:03 PM CDT
Moon 7:48 AM CDT (8/18) 8:33 PM CDT (8/18)
Length of Visible Light 14h 41m
Length of Day
13h 42m
New Moon, 1% of the Moon is Illuminated
Aug 18
New Moon
Aug 24
First Quarter
Aug 31
Full
Sep 8
Last Quarter
Sep 15
New

Hourly Weather History & Observations

Time (CDT) Temp. Dew Point Humidity Pressure Visibility Wind Dir Wind Speed Gust Speed Precip Events Conditions
12:54 AM 51.1 °F 46.0 °F 83% 30.04 in 10.0 mi Calm Calm - N/A   Clear
1:54 AM 50.0 °F 45.0 °F 83% 30.02 in 10.0 mi SW 3.5 mph - N/A   Clear
2:54 AM 50.0 °F 46.0 °F 86% 30.01 in 10.0 mi Calm Calm - N/A   Clear
3:54 AM 48.9 °F 44.1 °F 83% 30.01 in 10.0 mi Calm Calm - N/A   Clear
4:54 AM 48.9 °F 45.0 °F 86% 30.00 in 10.0 mi Calm Calm - N/A   Clear
5:54 AM 48.9 °F 45.0 °F 86% 29.98 in 10.0 mi South 5.8 mph - N/A   Clear
6:54 AM 48.0 °F 45.0 °F 89% 29.97 in 10.0 mi Calm Calm - N/A   Clear
7:54 AM 54.0 °F 48.0 °F 80% 29.96 in 10.0 mi SE 5.8 mph - N/A   Clear
8:54 AM 57.0 °F 48.0 °F 72% 30.10 in 9.0 mi NNW 16.1 mph 27.6 mph 0.00 in Rain Light Rain
9:54 AM 57.0 °F 51.1 °F 81% 30.06 in 10.0 mi North 6.9 mph - 0.01 in   Overcast
10:54 AM 57.0 °F 53.1 °F 87% 30.06 in 4.0 mi NE 3.5 mph - 0.02 in Rain Light Rain
11:10 AM 55.4 °F 53.6 °F 94% 30.07 in 1.8 mi ENE 3.5 mph - 0.05 in Rain Rain
11:18 AM 55.4 °F 53.6 °F 94% 30.07 in 2.5 mi NNE 5.8 mph - 0.06 in Rain Light Rain
11:25 AM 55.4 °F 53.6 °F 94% 30.07 in 4.0 mi NNE 4.6 mph - 0.07 in Rain Light Rain
11:54 AM 57.9 °F 55.0 °F 90% 30.04 in 8.0 mi ESE 3.5 mph - 0.08 in Rain Light Rain
12:35 PM 57.2 °F 53.6 °F 88% 30.04 in 2.5 mi ENE 4.6 mph - 0.03 in Rain Light Rain
12:42 PM 57.2 °F 55.4 °F 94% 30.04 in 5.0 mi ENE 4.6 mph - 0.03 in Rain Light Rain
12:54 PM 57.9 °F 55.0 °F 90% 30.02 in 10.0 mi SE 4.6 mph - 0.03 in   Overcast
1:54 PM 60.1 °F 55.0 °F 83% 30.01 in 10.0 mi SE 9.2 mph - 0.00 in   Overcast
2:54 PM 63.0 °F 55.0 °F 75% 30.00 in 10.0 mi East 5.8 mph - N/A   Overcast
3:54 PM 66.0 °F 54.0 °F 65% 29.99 in 10.0 mi ENE 10.4 mph - N/A   Overcast
4:54 PM 66.9 °F 53.1 °F 61% 29.99 in 10.0 mi NE 8.1 mph - N/A   Overcast
5:54 PM 66.0 °F 53.1 °F 63% 30.01 in 10.0 mi NE 12.7 mph 18.4 mph N/A   Overcast
6:54 PM 64.0 °F 53.1 °F 67% 30.01 in 10.0 mi NE 9.2 mph - N/A   Overcast
7:54 PM 62.1 °F 53.1 °F 72% 30.01 in 10.0 mi Calm Calm - N/A   Overcast
8:54 PM 60.1 °F 55.0 °F 83% 30.01 in 10.0 mi Calm Calm - N/A   Overcast
9:54 PM 57.9 °F 55.0 °F 90% 30.04 in 10.0 mi North 6.9 mph - N/A   Overcast
10:54 PM 54.0 °F 52.0 °F 93% 30.05 in 10.0 mi North 5.8 mph - N/A   Clear
11:54 PM 53.1 °F 51.1 °F 93% 30.06 in 10.0 mi NNW 3.5 mph - N/A   Clear